HULIANWANG DIGUI-116

基本信息
目录编号:
66955
目录名称:
HULIANWANG DIGUI-116
国际标识:
2025-287C
轨道中心:
EARTH
卫星名称:
HULIANWANG DIGUI-116
卫星全名:
HULIANWANG DIGUI-116
卫星状态:
在轨 (已飞行5 天)
发射日期:
2025-12-08 UTC
国别 :
中国 (PRC)
星等 :
--
轨道信息
数据来源 国际轨道数据 AOE轨道数据
星历时间 2025-12-13T00:48:26+0800
18小时前
查看轨道信息
2025-12-12T22:00:00+0800
21小时前
查看轨道信息
半长轴 7381.65km 7381.641km
偏心率 0.0007967 0.0008001
轨道倾角 86.491° 86.490°
近地点辐角 198.350° 197.091°
升交点赤经 346.165° 346.207°
平近点角 161.738° 306.934°
近地点 997.634km 997.599km
远地点 1009.396km 1009.413km
周期 105.194分钟 105.194分钟
每日圈数 13.689029 13.689055
详细信息
使用方式:
暂无
2D轨道图
3D轨道图
轨道高度分析图
轨道倾角分析图
轨道综合分析图
查看轨道综合分析图